This is the latest recevied weather packets stored in our database for station/object NA9VY-8. If no packets are shown the sender has not sent any weather packets the latest 10 day(s).
| Time | Temp. | Humidity | Pressure | Rain* | Wind** | Luminosity | Snow |
|---|---|---|---|---|---|---|---|
| 1778004392 | 15° C | 99% | 1011.4 hPa | 0 mm | - | 65 W/m² | - |
| 1778004090 | 15° C | 99% | 1011.6 hPa | 0 mm | - | 76 W/m² | - |
| 1778003786 | 15° C | 99% | 1011.4 hPa | 0 mm | - | 69 W/m² | - |
| 1778003482 | 15° C | 99% | 1011.3 hPa | 0 mm | - | 45 W/m² | - |
| 1778003178 | 15° C | 98% | 1011.5 hPa | 0 mm | - | 48 W/m² | - |
| 1778002874 | 15° C | 98% | 1011.5 hPa | 0 mm | - | 44 W/m² | - |
| 1778002571 | 15° C | 98% | 1011.9 hPa | 0 mm | - | 44 W/m² | - |
| 1778002268 | 15° C | 97% | 1012.1 hPa | 0 mm | - | 43 W/m² | - |
| 1778001966 | 15° C | 97% | 1012.2 hPa | 0 mm | - | 45 W/m² | - |
| 1778001662 | 15° C | 96% | 1012 hPa | 0 mm | - | 51 W/m² | - |
| 1778001357 | 15.56° C | 95% | 1012.2 hPa | 0 mm | - | 65 W/m² | - |
| 1778001054 | 15.56° C | 94% | 1012.2 hPa | 0 mm | - | 44 W/m² | - |
| 1778000751 | 15.56° C | 93% | 1012.4 hPa | 0 mm | - | 50 W/m² | - |
| 1778000448 | 15.56° C | 92% | 1012.2 hPa | 0 mm | - | 24 W/m² | - |
| 1778000143 | 16.11° C | 91% | 1012.2 hPa | 0 mm | - | 38 W/m² | - |
| 1777999839 | 16.11° C | 89% | 1011.9 hPa | 0 mm | - | 38 W/m² | - |
| 1777999535 | 16.67° C | 90% | 1012 hPa | 0 mm | - | 57 W/m² | - |
| 1777999233 | 16.67° C | 88% | 1011.8 hPa | 0 mm | - | 62 W/m² | - |
| 1777998931 | 16.67° C | 88% | 1011.7 hPa | 0 mm | - | 84 W/m² | - |
| 1777998627 | 16.67° C | 89% | 1011.9 hPa | 0 mm | - | 57 W/m² | - |
| 1777998321 | 16.67° C | 89% | 1011.9 hPa | 0 mm | - | 54 W/m² | - |
| 1777998018 | 16.67° C | 89% | 1011.8 hPa | 0 mm | - | 100 W/m² | - |
| 1777997715 | 16.67° C | 90% | 1011.7 hPa | 0 mm | - | 70 W/m² | - |
| 1777997412 | 16.67° C | 90% | 1011.9 hPa | 0 mm | - | 53 W/m² | - |
| 1777997110 | 16.67° C | 89% | 1011.6 hPa | 0 mm | - | 56 W/m² | - |
* Rain latest hour (hover to see other rain measurements)
** Current wind speed in m/s (hover to see current wind gust speed)